Погода в Онохино

Россия / Тюменская область     56°55′23″N   65°32′26″E
темп.,
°C
ветер,
м/с
пор.,
м/с
влажн.,
%
обл.,
%
осадки,
мм/ч
давл.,
гПа
погр.,
м
7 мая, пт
пт723:00+8зсз510500 0.0 1014978
02:00+6зсз512530 0.0 1015949
05:00+4зюз311650 0.0 1017352
08:00+9з49460 0.0 1019830
11:00+15з57325 0.0 10191219
14:00+19з56275 0.0 10191616
17:00+20з46305 0.0 10181765
20:00+16зюз22455 0.0 101943
8 мая, сб
сб823:00+12юз38535 0.0 1019119
02:00+11юз36575 0.0 1020105
05:00+9зюз225918 0.0 102036
08:00+16юз234199 0.0 1020308
11:00+20ююз2330100 0.0 10191608
14:00+22ю2325100 0.0 10182415
17:00+21ю2225100 0.0 10172669
20:00+18ю2236100 0.0 101716
9 мая, вс
вс923:00+15зюз1139100 0.0 101711
02:00+14ссв2243100 0.0 101717
05:00+13ссв2354100 0.0 101746
08:00+16св355098 0.0 1017312
11:00+21всв3531100 0.0 10171333
14:00+22в4626100 0.0 10162757
17:00+22всв4628100 0.0 10161995
20:00+18вюв124298 0.0 101773
10 мая, пн
пн1023:00+16ссв3762100 0.2 1018164
02:00+13св2372100 0.0 101949
05:00+12ссв2479100 0.0 102081
08:00+17всв355375 0.0 1020399
11:00+21св343978 0.0 10211523
14:00+23св22303 0.0 10202180
17:00+23ссв112751 0.0 10202442
20:00+19в1137100 0.0 102011
11 мая, вт
вт1123:00+16ю2545100 0.0 102075
02:00+14ююз3752100 0.0 1020140
05:00+14юз2752100 0.0 1019165
08:00+15зсз3568100 0.3 1020400
11:00+15ссз3475100 0.8 1020550
14:00+9с6118699 3.8 1023617
17:00+9с5127799 4.4 1024788
20:00+9всв23770 0.0 102569